TimePDT,TemperatureF,Dew PointF,Humidity,Sea Level PressureIn,VisibilityMPH,Wind Direction,Wind SpeedMPH,Gust SpeedMPH,PrecipitationIn,Events,Conditions,WindDirDegrees,DateUTC
12:04 AM,39.2,37.4,93,30.02,3.0,Calm,Calm,-,N/A,,Overcast,0,2013-05-27 07:04:00
12:19 AM,37.4,37.4,100,30.02,1.5,Calm,Calm,-,N/A,,Overcast,0,2013-05-27 07:19:00
12:31 AM,37.4,37.4,100,30.01,0.5,Calm,Calm,-,N/A,Fog,Fog,0,2013-05-27 07:31:00
12:43 AM,37.4,35.6,93,30.01,2.5,Calm,Calm,-,N/A,,Overcast,0,2013-05-27 07:43:00
12:56 AM,37.0,36.0,96,30.04,4.0,Calm,Calm,-,N/A,,Overcast,0,2013-05-27 07:56:00
1:37 AM,35.6,33.8,93,30.00,1.8,Calm,Calm,-,N/A,,Overcast,0,2013-05-27 08:37:00
1:56 AM,35.1,34.0,96,30.03,1.2,Calm,Calm,-,N/A,,Overcast,0,2013-05-27 08:56:00
2:05 AM,35.6,33.8,93,30.00,3.0,Calm,Calm,-,N/A,,Overcast,0,2013-05-27 09:05:00
2:25 AM,33.8,33.8,100,30.00,10.0,Calm,Calm,-,N/A,,Scattered Clouds,0,2013-05-27 09:25:00
2:56 AM,33.1,32.0,96,30.02,10.0,Calm,Calm,-,N/A,,Clear,0,2013-05-27 09:56:00
3:56 AM,32.0,30.9,96,30.01,8.0,Calm,Calm,-,N/A,,Clear,0,2013-05-27 10:56:00
4:15 AM,32.0,30.2,93,29.97,7.0,Calm,Calm,-,N/A,,Scattered Clouds,0,2013-05-27 11:15:00
4:23 AM,32.0,30.2,93,29.97,9.0,Calm,Calm,-,N/A,,Mostly Cloudy,0,2013-05-27 11:23:00
4:56 AM,30.9,30.0,96,29.99,5.0,Calm,Calm,-,N/A,,Mostly Cloudy,0,2013-05-27 11:56:00
5:04 AM,32.0,30.2,93,29.96,6.0,Calm,Calm,-,N/A,,Scattered Clouds,0,2013-05-27 12:04:00
5:56 AM,33.1,30.9,92,29.98,10.0,Calm,Calm,-,N/A,,Scattered Clouds,0,2013-05-27 12:56:00
6:03 AM,33.8,32.0,93,29.95,2.5,Calm,Calm,-,N/A,,Mostly Cloudy,0,2013-05-27 13:03:00
6:11 AM,33.8,33.8,100,29.95,3.0,Calm,Calm,-,N/A,,Scattered Clouds,0,2013-05-27 13:11:00
6:56 AM,39.0,37.0,93,29.95,10.0,Calm,Calm,-,N/A,,Clear,0,2013-05-27 13:56:00
7:56 AM,50.0,44.1,80,29.92,10.0,Calm,Calm,-,N/A,,Clear,0,2013-05-27 14:56:00
8:56 AM,54.0,44.1,69,29.90,10.0,Calm,Calm,-,N/A,,Clear,0,2013-05-27 15:56:00
9:56 AM,55.0,42.1,62,29.89,10.0,Variable,3.5,-,N/A,,Scattered Clouds,0,2013-05-27 16:56:00
10:56 AM,57.0,42.1,57,29.88,10.0,Calm,Calm,-,N/A,,Mostly Cloudy,0,2013-05-27 17:56:00
11:56 AM,53.1,41.0,64,29.89,10.0,Variable,4.6,-,N/A,,Overcast,0,2013-05-27 18:56:00
12:06 PM,50.0,44.6,82,29.89,1.8,Variable,5.8,-,0.02,Rain,Rain,0,2013-05-27 19:06:00
12:17 PM,48.2,44.6,87,29.89,3.0,Calm,Calm,-,0.05,Rain,Light Rain,0,2013-05-27 19:17:00
12:56 PM,51.1,46.9,86,29.90,10.0,Calm,Calm,-,0.08,Rain,Light Rain,0,2013-05-27 19:56:00
1:56 PM,52.0,46.0,80,29.88,10.0,Calm,Calm,-,0.00,Rain,Light Rain,0,2013-05-27 20:56:00
2:56 PM,52.0,46.9,83,29.88,7.0,Calm,Calm,-,0.02,Rain,Light Rain,0,2013-05-27 21:56:00
3:34 PM,51.8,48.2,88,29.85,5.0,Calm,Calm,-,0.03,Rain,Light Rain,0,2013-05-27 22:34:00
3:41 PM,51.8,48.2,88,29.85,6.0,Calm,Calm,-,0.03,Rain,Light Rain,0,2013-05-27 22:41:00
3:49 PM,51.8,48.2,88,29.85,4.0,Variable,3.5,-,0.03,Rain,Light Rain,0,2013-05-27 22:49:00
3:56 PM,50.0,46.9,89,29.88,3.0,Calm,Calm,-,0.04,Rain,Light Rain,0,2013-05-27 22:56:00
4:56 PM,50.0,46.9,89,29.88,4.0,Calm,Calm,-,0.04,Rain,Rain,0,2013-05-27 23:56:00
5:56 PM,51.1,46.0,83,29.86,6.0,Calm,Calm,-,0.02,,Haze,0,2013-05-28 00:56:00
6:56 PM,50.0,46.0,86,29.84,6.0,Calm,Calm,-,0.00,Rain,Light Rain,0,2013-05-28 01:56:00
7:56 PM,48.0,46.0,93,29.82,10.0,Calm,Calm,-,0.02,Rain,Light Rain,0,2013-05-28 02:56:00
8:56 PM,46.0,44.1,93,29.81,10.0,Calm,Calm,-,0.00,,Mostly Cloudy,0,2013-05-28 03:56:00
9:56 PM,45.0,43.0,93,29.81,10.0,Calm,Calm,-,N/A,,Mostly Cloudy,0,2013-05-28 04:56:00
10:56 PM,45.0,43.0,93,29.80,10.0,Calm,Calm,-,N/A,,Overcast,0,2013-05-28 05:56:00
11:43 PM,46.4,44.6,93,29.82,2.5,Calm,Calm,-,0.05,Rain,Rain,0,2013-05-28 06:43:00
11:56 PM,46.0,44.1,93,29.82,3.0,Calm,Calm,-,0.09,Rain,Rain,0,2013-05-28 06:56:00